CAPE
1 1 1 0 0 0 0 0 0 0 0 0 0 0 0 0 0 0 0 0 0 0 0 0 0 0 0 0 0 0 7 7 0 30 94 32 368 425 120 492 488 692 95 807 453
0 0 0 0 0 0 0 0 0 0 0 0 0 0 0 0 0 0 0 0 0 0 0 0 0 0 0 0 0 0 10 0 0 5 7 127 34 8 351 276 494 597 776 853 327
0 0 0 0 0 0 0 0 0 0 0 0 0 0 0 0 0 0 0 0 0 0 0 0 0 0 0 0 0 0 0 0 0 0 0 3 84 120 214 327 97 724 809 810 359
0 0 0 0 0 0 0 0 0 0 0 0 0 0 0 0 0 0 0 0 0 0 0 0 0 0 0 0 0 0 0 0 0 0 0 0 1 11 17 567 427 609 822 653 499
0 0 0 0 0 0 0 0 0 0 0 0 0 0 0 0 0 0 0 0 0 0 0 0 0 0 0 0 0 0 0 0 0 0 0 10 8 26 75 249 401 948 688 702 501
0 0 0 0 0 0 0 0 0 0 0 0 0 0 0 0 0 0 0 0 0 0 0 0 0 0 0 0 0 0 0 0 0 0 0 0 0 84 210 236 468 294 535 851 653
0 0 0 0 0 0 0 0 0 0 0 0 0 0 0 0 0 0 0 0 0 0 0 0 0 0 0 0 0 0 0 0 0 0 0 0 4 3 150 232 310 320 583 828 742
1 0 0 1 0 0 0 0 0 0 0 0 0 0 0 0 0 0 0 0 0 0 0 0 0 0 0 0 0 0 0 2 0 0 0 0 3 3 6 237 423 279 580 905 609
1 1 0 1 0 0 0 0 0 0 0 0 0 0 0 0 0 0 0 0 0 0 0 0 0 0 0 0 0 0 0 4 0 0 0 0 0 175 287 165 193 581 670 730 741
1 1 1 1 0 0 0 0 0 0 0 0 0 0 0 0 0 0 0 0 0 0 0 0 0 0 0 0 0 0 21 0 0 0 0 0 0 6 22 184 151 211 640 600 582
1 1 1 1 0 0 0 0 0 0 0 0 0 0 0 0 0 0 0 0 0 0 0 0 0 0 0 0 0 0 0 0 0 0 0 0 0 31 28 74 274 202 711 673 493
1 1 1 0 0 0 0 0 0 0 0 0 0 0 0 0 0 0 0 0 0 0 0 0 0 0 0 0 0 0 0 0 3 0 0 0 88 4 30 5 10 476 455 282 101
1 0 1 0 0 0 0 0 0 0 0 0 0 0 0 0 0 0 0 0 0 0 0 0 0 0 0 0 0 0 0 2 0 0 0 0 25 15 3 8 173 395 599 778 205
1 1 1 0 0 0 0 0 0 0 0 0 0 0 0 0 0 0 0 0 0 0 0 0 0 0 0 0 0 0 0 0 0 0 0 33 54 5 0 0 102 228 651 650 926
1 2 0 0 0 0 0 0 0 0 0 0 0 0 0 0 0 0 0 0 0 0 0 0 0 0 0 0 0 0 0 0 0 0 0 36 2 17 1 5 114 283 751 784 672
3 2 0 0 0 0 0 0 0 0 0 0 0 0 0 0 0 0 0 0 0 0 0 0 0 0 0 0 0 0 0 0 0 0 0 0 13 31 18 144 365 509 570 531 624
0 0 0 0 0 0 0 0 0 0 0 0 0 0 0 0 0 0 0 0 0 0 1 0 0 0 0 0 0 0 0 0 1 15 14 0 19 0 10 164 543 495 433 409 846
0 0 0 0 0 0 0 0 0 2 12 0 0 0 0 0 0 0 0 0 0 0 0 0 2 0 0 0 0 0 9 10 0 2 6 0 62 4 0 424 776 824 803 906 961
0 0 0 0 0 0 0 0 16 92 6 0 0 0 0 0 0 0 0 0 0 0 0 0 5 0 0 0 0 0 1 11 7 13 41 26 11 9 13 13 217 275 779 908 1212
0 0 0 0 0 0 0 0 20 0 1 4 2 0 10 0 0 0 0 2 1 0 0 0 13 15 1 0 0 0 0 0 0 23 18 67 94 146 0 11 112 342 818 896 1454
0 0 0 0 0 0 0 30 8 0 0 8 3 10 11 0 0 0 0 0 0 0 0 0 0 0 4 0 16 11 0 0 0 39 35 59 43 178 137 210 200 558 949 1038 1257
0 4 0 0 0 0 0 1 0 0 0 0 0 43 4 1 13 4 26 24 0 0 0 1 8 0 1 1 0 5 37 7 19 3 40 5 134 177 169 1 286 621 959 1129 1273
7 50 0 0 0 0 20 15 0 0 0 0 5 15 13 10 20 11 9 1 2 0 0 0 30 0 1 26 0 0 2 12 28 43 43 29 64 0 19 5 207 596 581 842 1781
3 5 0 0 0 1 10 18 0 0 10 21 27 3 0 2 2 3 3 0 0 0 0 0 0 0 0 0 0 0 32 74 84 15 6 48 8 3 7 0 5 759 652 765 1362
5 70 9 0 0 0 12 64 50 1 0 0 3 0 26 26 54 31 15 5 0 0 0 0 0 0 0 0 0 0 0 0 0 0 0 1 1 117 0 0 317 719 987 1093 1178
1 0 0 0 3 0 0 37 54 43 11 37 0 29 0 0 0 0 0 0 0 0 0 0 0 0 0 0 0 0 0 0 0 0 0 0 157 291 87 91 426 960 1074 1261 1374
0 0 0 19 0 0 18 19 24 3 0 0 0 0 0 0 0 0 0 0 0 0 0 0 0 0 0 0 0 0 3 18 19 46 114 74 883 934 678 794 946 911 936 1129 1329
CIN
0 0 0 0 0 0 0 0 0 0 0 0 0 0 0 0 0 0 0 0 0 0 0 0 0 0 0 0 0 0 -16 -6 0 -2 -42 -41 -8 -10 -41 -3 -2 -32 -120 -34 -8
0 0 0 0 0 0 0 0 0 0 0 0 0 0 0 0 0 0 0 0 0 0 0 0 0 0 0 0 0 0 -5 0 0 -2 -3 -37 -84 -28 -3 -22 -13 -7 -32 -3 -5
0 0 0 0 0 0 0 0 0 0 0 0 0 0 0 0 0 0 0 0 0 0 0 0 0 0 0 0 0 0 0 0 0 0 0 -1 -52 -14 -11 -42 -92 -5 -25 -7 -2
0 0 0 0 0 0 0 0 0 0 0 0 0 0 0 0 0 0 0 0 0 0 0 0 0 0 -1 0 0 0 0 0 0 0 0 0 0 -9 -53 -17 -73 -18 -11 -10 -2
0 0 0 0 0 0 0 0 0 0 0 0 0 0 0 0 0 0 0 0 0 0 0 0 0 0 0 0 0 0 0 0 0 0 0 -3 -2 -95 -49 -4 -11 -13 -14 -15 -4
0 0 0 0 0 0 0 0 0 0 0 0 0 0 0 0 0 0 0 0 0 0 0 0 0 0 0 0 0 0 0 0 0 0 0 0 0 -14 -28 -62 -4 -4 -3 -4 -10
0 0 0 0 0 0 0 0 0 0 0 0 0 0 0 0 0 0 0 0 0 0 0 0 0 0 0 0 0 0 0 0 0 0 0 0 -10 -31 -79 -11 -4 -1 -5 -3 -5
0 0 0 0 0 0 0 0 0 0 0 0 0 0 0 0 0 0 0 0 0 0 0 0 0 0 0 0 0 0 0 -3 0 0 0 0 -1 -188 -61 -131 -2 -4 -8 -6 -9
0 0 0 0 0 0 0 0 0 0 0 0 0 0 0 0 0 0 0 0 0 0 0 0 0 0 0 0 0 0 0 -2 0 0 0 0 0 -29 -140 -11 -10 -3 -3 -10 -6
0 0 0 0 0 0 0 0 0 0 0 0 0 0 0 0 0 0 0 0 0 0 0 0 0 0 0 0 0 0 -31 0 0 0 0 0 0 -8 -3 -12 -10 -3 -8 -20 -16
0 -1 -1 0 0 0 0 0 0 0 0 0 0 0 0 0 0 0 0 0 0 0 0 0 0 0 0 0 0 0 0 0 0 0 0 0 0 -22 -132 -141 -5 -4 -7 -17 -27
-1 -1 -1 0 0 0 0 0 0 0 0 0 0 0 0 0 0 0 0 0 0 0 0 0 0 0 0 0 0 0 0 0 -3 0 0 0 -56 -113 -114 -62 -113 -11 -5 -78 -115
0 -1 -1 0 0 0 0 0 0 0 0 0 0 0 0 0 0 0 0 0 0 0 0 0 0 0 0 0 0 0 0 -4 0 0 0 0 -99 -196 -70 -189 -153 -100 -5 -52 -134
0 0 0 0 0 0 0 0 0 0 0 0 0 0 0 0 0 0 0 0 0 0 0 0 0 0 0 0 0 0 0 0 0 0 0 -10 -96 -294 0 0 -128 -157 -12 -8 -76
0 0 0 0 0 0 0 0 0 0 0 0 0 0 0 0 0 0 0 0 0 0 0 0 0 0 0 0 0 0 0 0 0 0 0 -14 -70 -103 -323 -316 -121 -104 -27 -8 -5
0 0 0 0 0 0 0 0 0 0 0 0 0 0 0 0 0 0 0 0 0 0 0 0 0 0 0 0 0 0 0 0 0 0 -4 0 -33 -16 -128 -65 -44 -3 -2 -6 -4
0 0 0 0 0 0 0 0 0 0 0 0 0 0 0 0 0 0 0 0 0 0 -21 0 0 0 0 0 0 0 0 0 -56 -5 -48 0 -43 0 -25 -38 -30 -24 -20 -35 -31
0 0 0 0 0 0 0 0 0 -7 -5 0 0 0 0 0 0 0 0 0 0 0 0 -12 -21 0 0 0 0 0 -10 -12 -5 -3 -20 0 -58 -6 0 -23 -5 -13 -28 -39 -38
0 0 0 0 0 0 0 0 -61 -3 -11 0 0 0 0 0 -1 0 0 0 0 -1 0 0 -11 0 0 0 0 0 -4 -12 -10 -7 -14 -11 -162 -302 -265 -134 -39 -113 -14 -27 -47
0 0 0 0 0 0 0 0 -42 0 -4 -5 -1 0 -4 0 0 0 0 -3 -8 0 0 0 -13 -14 -4 0 0 0 0 0 0 -13 -28 -3 -13 -104 0 -158 -117 -81 -6 -22 -39
0 0 0 0 0 0 0 -29 -3 0 0 -7 -32 -4 -8 0 0 0 0 0 0 0 0 0 0 0 -21 -4 -6 -5 -2 -2 0 -10 -11 -5 -91 -51 -115 -83 -97 -2 -3 -11 -26
0 -2 0 0 0 0 0 -3 0 0 0 0 0 -5 -59 -21 -6 -34 -7 -8 0 0 0 -2 -5 0 -24 -17 0 -32 -8 -3 -5 -13 -6 -15 -40 -188 -167 -1 -18 -9 -15 -23 -29
-11 -15 0 0 0 0 -6 -6 0 -1 -1 0 -9 -27 -9 -6 -13 -7 -10 -16 -31 0 0 0 -6 -1 -1 -15 0 0 -75 -26 -17 -6 -2 -8 -49 0 -177 -68 -80 -19 -14 -31 -11
-16 -3 0 0 0 -4 -11 -3 0 0 -4 -6 -4 -4 0 -10 -3 -7 -8 0 0 0 0 0 0 0 0 0 0 0 -18 -10 -5 -4 -9 -11 -34 -120 -171 0 -79 -69 -38 -26 -13
-13 -3 -10 0 0 0 -48 -3 -6 -4 0 0 -5 -2 -3 -4 -3 -3 -3 -2 0 0 0 0 0 0 0 0 0 0 0 0 0 0 0 -4 -4 -70 0 0 -84 -59 -33 -43 -31
-16 0 0 0 -5 -1 0 -7 -2 -13 -11 -3 0 -3 0 0 0 0 0 0 0 0 0 0 0 0 0 0 0 0 0 0 0 0 0 0 -18 -113 -175 -196 -121 -5 -29 -49 -69
0 0 0 -60 0 0 -4 -11 -7 -1 0 0 0 0 0 0 0 0 0 0 0 0 0 0 0 0 0 0 0 0 -8 -8 -11 -36 -5 -11 -24 -25 -50 -18 -1 -3 -37 -61 -78
Wind_Speed
20 20 20 20 20 19 20 20 21 21 21 22 22 22 22 22 23 22 21 16 17 18 18 18 17 16 16 13 13 14 19 18 19 23 20 18 18 11 20 18 16 16 17 18 18
21 21 21 21 21 20 20 21 21 21 21 21 21 22 22 22 22 26 22 19 19 19 19 18 17 16 18 13 13 16 17 18 19 22 22 20 7 18 15 17 18 15 17 20 19
21 21 21 21 22 22 21 21 21 21 21 20 20 21 21 20 22 23 21 22 21 21 20 17 16 16 16 14 17 17 17 17 19 20 22 20 22 14 15 18 21 12 15 17 17
19 20 21 21 22 22 22 22 21 21 21 20 19 19 20 19 13 15 20 21 23 22 20 18 17 16 16 16 17 9 15 15 18 17 20 21 22 20 17 13 13 15 13 13 14
17 18 20 21 21 22 21 21 21 21 21 20 19 18 18 22 22 18 20 22 23 23 21 19 17 16 17 16 15 11 18 9 20 14 18 12 15 16 18 14 13 11 9 10 10
17 18 19 19 19 19 20 20 20 20 20 20 19 19 21 24 16 20 21 22 23 23 22 20 17 16 16 17 7 18 11 9 14 14 13 16 13 10 18 20 12 11 9 7 7
19 18 18 18 18 18 19 19 19 20 20 20 19 19 23 26 18 19 21 22 23 22 22 20 20 19 18 15 18 11 7 7 10 18 13 22 25 9 22 11 11 10 7 6 6
21 20 19 19 19 19 19 18 19 19 19 20 20 20 22 23 23 22 23 22 22 23 23 20 18 21 20 17 10 8 7 13 13 17 13 12 25 17 9 13 9 6 7 4 4
23 22 21 21 20 20 19 19 19 19 19 19 19 20 22 15 22 23 23 19 15 20 19 20 19 19 20 15 9 5 12 11 17 9 14 12 23 9 8 7 8 5 7 6 5
24 23 22 22 21 21 20 20 18 19 20 21 22 20 23 21 14 17 19 20 9 12 9 9 9 10 10 6 7 17 9 18 18 11 17 12 8 27 21 6 6 4 7 5 4
25 24 23 22 22 21 18 12 13 16 19 11 7 10 12 9 8 9 12 13 15 7 8 11 5 4 6 4 20 20 16 17 4 12 13 6 7 25 31 31 5 1 6 4 7
25 24 24 23 22 21 19 15 17 19 23 19 25 5 19 9 7 7 10 8 7 6 7 5 4 4 11 16 18 10 6 2 1 11 6 6 23 27 31 34 29 7 8 4 14
26 25 23 22 21 19 3 13 22 22 22 3 5 3 6 8 4 6 9 9 5 6 5 2 14 12 8 11 9 4 5 6 26 27 13 4 24 30 22 31 26 25 13 8 10
26 24 22 18 17 10 7 9 27 21 22 4 1 8 4 6 11 5 8 8 6 8 6 12 9 3 9 4 6 8 23 25 23 22 19 12 18 19 17 19 18 19 15 9 9
25 23 20 14 21 9 12 9 7 14 20 5 5 5 5 13 8 5 8 15 22 5 14 8 7 4 8 3 8 15 27 21 19 18 16 24 17 14 12 15 10 11 13 9 6
24 23 17 15 15 22 16 12 17 10 18 7 6 5 7 13 9 7 9 21 20 23 7 14 9 6 7 8 13 20 22 20 17 18 15 21 11 12 14 15 16 18 10 8 7
22 16 5 19 14 16 20 11 9 14 9 6 4 8 10 7 6 6 10 9 12 13 14 15 14 11 9 19 20 19 19 23 20 14 19 10 1 16 12 11 17 19 18 17 19
18 7 22 24 20 20 22 15 18 4 8 9 8 11 14 12 10 9 9 15 16 22 18 10 7 13 13 15 20 20 24 24 26 28 2 15 13 22 25 7 17 20 21 22 21
15 17 20 22 27 22 21 13 20 21 7 8 13 14 16 7 12 8 18 17 18 19 18 14 16 15 13 13 15 17 20 25 22 26 26 16 17 20 15 29 14 11 23 23 21
16 21 17 3 13 22 22 25 21 16 12 5 7 17 16 4 6 13 13 10 17 20 20 21 10 7 14 13 15 16 18 18 20 20 25 17 19 12 18 16 14 7 22 22 20
17 17 6 14 22 24 24 23 17 18 21 18 16 22 9 8 16 14 6 10 10 14 18 23 23 16 10 12 19 15 14 21 26 24 15 20 18 13 10 11 9 17 20 21 20
19 20 12 18 21 26 26 27 16 12 20 19 20 19 14 4 13 15 12 9 13 19 23 24 24 25 26 13 10 20 24 14 10 23 29 31 23 21 22 19 22 17 19 19 20
18 21 15 24 15 26 20 18 17 16 15 18 19 14 15 14 17 19 14 13 17 21 20 22 19 22 23 21 25 27 31 31 28 33 33 32 18 20 26 25 30 23 19 18 16
19 14 12 24 30 27 22 15 16 15 13 17 16 17 16 19 16 22 21 17 17 20 19 25 26 25 25 28 28 16 2 13 25 33 35 36 13 14 16 17 6 18 15 17 18
19 20 14 12 29 28 22 19 10 13 18 17 15 20 19 22 21 19 23 24 18 11 21 23 27 28 29 31 32 31 31 32 29 31 35 36 43 15 13 10 6 6 13 17 18
19 18 19 23 20 20 20 20 20 15 15 16 21 20 21 23 26 28 23 23 24 22 24 25 29 30 32 32 32 32 35 35 35 30 28 34 29 12 8 7 6 11 14 17 19
20 21 22 22 21 18 22 20 19 19 19 21 23 22 23 20 23 24 26 31 31 31 30 28 29 31 34 33 34 32 28 23 22 24 27 30 12 8 8 9 13 13 16 20 20
Wind_Direction
285 280 275 270 263 258 258 259 263 265 267 268 271 270 269 269 262 235 226 269 263 252 234 221 216 213 197 214 204 209 322 332 324 323 355 14 5 71 306 351 20 46 81 113 104
285 281 273 272 267 261 259 261 257 254 256 260 263 266 268 272 254 231 244 255 245 233 220 228 245 223 213 217 251 262 353 329 347 309 321 3 80 1 10 345 318 53 83 106 110
285 285 274 270 270 265 259 256 256 254 250 250 253 259 263 266 246 227 243 221 227 218 217 233 224 215 229 184 274 293 348 351 357 360 328 320 337 30 13 352 293 56 88 94 111
274 275 273 265 262 262 258 254 251 250 247 244 244 249 249 225 262 231 221 223 213 214 216 214 202 202 227 292 19 359 51 46 14 16 350 326 328 351 4 26 91 142 109 86 107
264 262 265 261 259 256 251 248 245 243 240 239 240 245 230 204 213 212 202 207 202 197 200 203 210 220 244 291 262 90 346 95 5 43 14 30 6 359 357 28 51 63 91 70 87
262 258 258 255 250 246 241 240 238 235 234 233 235 239 209 204 231 183 184 187 188 179 192 204 203 282 220 260 113 316 176 174 40 42 40 16 20 29 5 250 31 18 35 64 73
267 256 249 245 242 238 236 234 233 230 227 227 228 225 214 197 229 214 200 185 177 167 185 203 236 216 242 210 335 107 139 165 74 26 38 359 342 0 304 312 28 19 29 70 65
274 261 253 247 241 236 232 231 229 224 223 219 219 218 211 193 213 200 192 187 195 188 212 257 279 229 230 211 193 132 85 22 38 23 39 29 339 22 105 188 37 59 45 73 67
279 268 259 252 246 241 236 234 229 224 212 212 213 203 211 271 189 189 178 153 129 175 182 260 232 206 225 202 187 120 18 24 4 45 23 34 345 45 143 56 41 61 113 100 106
282 274 265 258 253 249 243 235 244 242 218 195 216 226 217 189 119 137 147 177 77 119 111 115 132 155 160 84 37 356 8 356 1 32 7 17 261 329 349 31 30 54 147 101 108
284 277 268 262 259 258 262 307 300 300 168 294 35 215 360 10 33 98 118 121 149 88 112 140 82 111 126 112 328 332 345 348 29 20 7 189 192 322 326 318 10 150 168 167 158
286 278 271 265 264 266 269 280 313 293 272 180 232 293 282 345 22 95 117 105 108 113 93 109 73 104 178 335 333 7 25 178 111 32 46 32 334 334 317 302 284 188 185 187 163
287 278 271 271 274 281 334 210 298 296 283 93 116 73 355 339 51 87 119 127 59 23 130 92 204 353 2 349 8 103 154 198 310 275 225 220 332 342 325 280 279 283 191 159 157
285 278 275 283 293 318 326 167 265 294 291 330 84 324 71 14 326 107 117 119 17 2 133 329 174 25 2 25 149 181 322 266 255 251 244 354 347 16 28 12 231 236 202 161 162
279 273 272 277 273 316 338 341 22 307 291 78 85 5 69 128 36 44 93 147 205 73 334 141 33 54 1 80 171 206 264 243 242 237 226 322 0 15 62 76 153 200 176 155 152
276 261 273 285 290 248 269 292 237 312 298 33 37 92 110 142 326 28 95 179 195 238 129 190 310 109 143 145 180 221 240 234 230 231 217 330 29 33 46 68 72 58 107 149 110
285 283 314 261 275 240 233 254 302 264 59 5 66 111 123 96 73 31 115 119 145 122 165 185 181 164 136 206 204 209 223 253 262 320 331 356 60 343 7 99 57 40 47 35 12
290 325 202 215 244 231 218 243 260 236 334 36 89 111 132 113 108 91 96 152 164 212 216 167 165 149 134 168 214 230 253 254 270 293 62 355 341 295 275 331 63 57 50 34 21
260 240 235 222 200 221 226 265 234 239 6 61 99 117 138 93 203 89 160 158 170 170 241 336 231 84 134 148 169 215 234 273 254 280 335 13 14 3 7 292 219 227 34 31 36
248 215 232 336 240 216 227 217 263 285 269 347 63 138 127 47 233 126 119 209 289 266 270 256 223 204 203 145 182 201 239 246 263 276 313 334 354 16 21 120 169 98 25 29 35
247 249 300 247 218 221 232 258 284 262 237 244 273 204 126 88 154 123 292 9 315 300 294 272 259 262 326 160 250 208 196 330 272 266 263 306 15 57 90 95 105 27 25 28 34
248 256 261 233 235 225 215 229 279 289 248 262 238 258 264 24 264 291 4 345 317 288 270 283 267 251 258 337 165 225 277 319 217 246 281 305 321 329 329 323 345 19 20 19 21
255 243 258 222 252 230 270 283 259 272 272 272 274 285 275 291 275 269 321 325 314 295 305 295 272 264 252 307 279 293 307 280 263 270 268 304 325 322 326 337 299 320 20 24 29
253 270 280 237 229 245 276 278 276 283 292 285 291 282 292 278 299 275 294 316 328 295 310 285 243 236 241 261 277 238 135 207 250 276 284 297 345 336 339 345 335 234 15 13 15
250 268 282 273 239 238 256 276 294 295 282 287 297 281 293 277 280 293 284 271 315 352 308 288 255 256 260 271 272 266 264 262 255 258 268 274 296 334 353 16 144 143 26 6 2
270 277 274 263 272 272 278 268 268 300 286 291 274 292 284 280 274 266 289 285 286 301 293 295 269 277 266 272 266 262 266 266 273 304 316 305 320 6 34 80 92 31 18 13 4
290 274 264 267 265 272 270 272 277 289 287 282 280 280 283 296 291 291 293 274 269 274 284 297 300 298 292 300 301 305 316 317 319 314 320 317 19 41 70 72 24 16 6 359 356